Showing default

OPS 9328 (IDSCS 15), 2655

Orbit data source: Space-Track

OPS 9328 (IDSCS 15), 2655 is a payload satellite owned by USAF SSD (US) in GEO that was launched on Wed, 18 Jan 1967 UTC via a TITAN IIIC launch vehicle from the Air Force Eastern Test Range (AFETR). Payload-class satellites include a variety of spacecraft equipped with specific instruments for various scientific and technological missions. These include communications satellites like Starlink; space stations such as the ISS; scientific satellites like the Hubble; Earth observation satellites from companies like Planet Labs, Umbra, and HawkEye 360; GPS; miniature CubeSats for education and research; and military/defense satellites.

Not visible in the next 10 days
Identifier
2655, 1967-003H
Orbit
GEO
Last TLE update
2 days ago
Origin
Manufacturer
Philco-Ford WDL
Mission
Non-operational Defense Communications
Bus & Motor
IDCSP, Unknown motor
Mass
45 kg wet, 45 kg dry
Launch date (UTC)
1967-01-18 (58 years ago)
Launch vehicle
TITAN IIIC
Launch site
Air Force Eastern Test Range (AFETR)
Object type
Payload
Rocket body
Debris
Shape & HBR
Ico Poly, 0.9 m
Radar Cross Section
0.926 m², Medium (>0.1 m² and < 1m²)

Expand to show TLE details & history

TLE from 2 days ago
0 OPS 9328 (IDSCS 15)
1 02655U 67003H   25180.79045769 -.00000108  00000-0  00000-0 0  9997
2 02655   7.3668  51.0479 0074225  30.0806 160.4149  1.07230233135424
Epoch: 2025-06-29T18:58Z
TLE epoch observation values (Epoch: 2025-06-29T18:58:15.544Z)
Latitude
-1.38419°
Longitude
39.08596°
Altitude
34,224.725 km
Speed
3.122 km/s
True Right ascension
16h 07m 02s
True Declination
-1° 22' 58"
Sunlit
Object was in daylight at epoch
Visualization orbit readout
Latitude
7.22331°
Longitude
-73.99182°
Altitude
33,736.872 km
Speed
3.16 km/s
Apparent Right ascension
08h 33m 01s
Apparent Declination
1° 14' 26"
Sunlit
Object is in daylight
Visualization observer readout
Local Sidereal Time
20:19:08
Azimuth
354.739° N
Elevation
-48.721°
Doppler factor
1
Orbital elements
Apogee altitude
34,242.531 km
Perigee altitude
33,643.96 km
Semi-major axis
40,321.383 km
Eccentricity
0.00742
Inclination
7.3668°
RAAN
51.0479°
Arg. of periapsis
30.0806°
True anomaly
Unknown
Mean anomaly
160.4149°
Eccentric anomaly
Unknown
Mean motion
0.26806 °/min
Orbital period
1,342.96 mins
BSTAR
0
Loading historical data...
2655 neighbors
Loading maneuver chart data...
Loading SW <> Apogee altitude chart data...
Loading historical data...
Loading historical data...
Loading historical data...
Loading historical data...
Loading historical data...
Loading historical data...
Loading historical data...

OPS 9328 (IDSCS 15) Visibility

Observer location: undefined°, undefined°

OPS 9328 (IDSCS 15) is likely not visible in the next few days
Span
Click to sort rows by Start time (UTC) header in descending order
Start Az.
Max El. time (UTC)
Max El. Az.
Max El.
End time (UTC)
End Az.
|